Terug naar catalogus

STARLINK-11601

ActiefCommunicatieVLEO
NORAD 63110·PAYLOAD·🇺🇸 United States

Gelanceerd Feb 27, 2025 vanaf Cape Canaveral Space Force Station

Loading…

Volgende Passages (komende 24 uur)

TLE

VersSource: CelesTrak SupGP

Epoch: Sep 14, 2026, 23:03 UTC

1 63110C 25039G   26257.96090278 -.00025963  00000+0 -20163-3 0  2571
2 63110  43.0004 175.9684 0001542 264.6607  74.5450 15.70854070    10

Volg STARLINK-11601 in realtime met AllMySat

Download on the App Store